Location: �perlecques
(50.8057°N, 2.1521°E)
Time: 12:39:21
(UTC+00:00)

Vanguard 1 Rocket - Pass Details

Date: 05 August 2021
Orbit: 650 x 4226 km, 34.3° (Epoch: 23 September)

Event Time Altitude Azimuth Distance (km) Brightness Sun altitude
Rises 14:16:23 0° 270° (W) 6,330 12.2 46.1°
Reaches altitude 10° 14:23:13 10° 253° (WSW) 4,497 11.9 45.3°
Maximum altitude 14:29:10 16° 221° (SW) 3,288 11.4 44.5°
Drops below altitude 10° 14:33:36 10° 187° (S) 3,163 10.7 43.9°
Sets 14:37:06 0° 164° (SSE) 3,696 10.7 43.5°
